[[{"header":{"parameterUnit":"m.s-1","parameterCategory":1,"la1":30.2992,"la2":30.254,"lo1":-89.0895,"lo2":-89.0443,"dy":0.0025,"dx":0.0025,"nx":19,"ny":19,"refTime":"2026-05-19T03:00:00:Z","depth":0,"parameterNumber":2,"parameterNumberName":"U-component_of_WINDS"},"data":[0,0,0,-4.3698,-4.37,-4.3821,-4.3821,-4.3989,-4.3991,0,0,0,0,0,0,0,0,0,0,0,-4.3669,-4.367,-4.3698,-4.3701,-4.3821,-4.3821,-4.3989,-4.3991,0,0,0,0,0,0,0,0,0,0,0,-4.3668,-4.367,-4.3672,-4.3701,-4.3821,-4.3821,-4.3988,-4.3893,0,0,0,0,0,0,0,0,0,0,-4.3774,-4.3754,-4.367,-4.3672,-4.3702,-4.3821,-4.3821,-4.3888,-4.3899,-4.394,0,-4.3977,0,-4.3987,-4.4003,-4.4003,0,0,0,-4.3696,-4.3745,-4.3771,-4.3672,-4.3703,-4.3821,-4.3765,-4.3894,-4.3906,-4.3955,-4.398,-4.3986,-4.399,-4.4004,-4.4005,-4.4258,-4.426,0,0,-4.3689,-4.3694,-4.3763,-4.3779,-4.376,-4.3761,-4.3769,-4.3901,-4.3929,-4.398,-4.3989,-4.3992,-4.4005,-4.4006,-4.4257,-4.4259,0,0,0,-4.3673,-4.369,-4.3713,-4.3773,-4.3793,-4.3765,-4.3774,-4.3923,-4.393,-4.3991,-4.3994,-4.4006,-4.4008,-4.4255,-4.4258,-4.4333,0,0,0,-4.3669,-4.3681,-4.371,-4.3715,-4.3791,-4.386,-4.3793,-4.3921,-4.3936,-4.3994,-4.4006,-4.401,-4.4254,-4.4257,-4.4327,-4.4367,0,0,0,-4.3659,-4.3679,-4.3699,-4.3715,-4.3767,-4.3857,-4.3872,-4.3924,-4.3938,-4.4003,-4.401,-4.4253,-4.4256,-4.4322,-4.4359,-4.4435,0,0,0,-4.3649,-4.3764,-4.3701,-4.383,-4.3766,-4.3903,-4.3871,-4.3973,-4.4038,-4.4007,-4.4254,-4.4257,-4.4321,-4.4354,-4.443,-4.45,-4.4529,0,0,-4.3797,-4.3782,-4.3858,-4.3805,-4.3955,-4.3884,-4.4046,-4.41,-4.4102,-4.4207,-4.4213,-4.4329,-4.4358,-4.4434,-4.4697,-4.472,0,0,0,-4.3906,-4.3961,-4.3999,-4.4061,-4.4106,-4.4148,-4.4178,-4.4199,-4.4287,-4.4156,-4.4378,-4.4395,-4.4439,-4.4472,-4.4493,-4.4531,-4.4273,-4.4273,-4.4272,-4.412,-4.4117,-4.4243,-4.4256,-4.4317,-4.4347,-4.4397,-4.4431,-4.4408,-4.4462,-4.4492,-4.4651,-4.469,-4.4705,-4.4745,-4.4529,-4.453,-4.453,-4.453,-4.4335,-4.4412,-4.4383,-4.4494,-4.4492,-4.4586,-4.4622,-4.4604,-4.4692,-4.4627,-4.4666,-4.4595,-4.4731,-4.4766,-4.4536,-4.4535,-4.4534,-4.4534,-4.4533,-4.4474,-4.451,-4.4534,-4.4626,-4.4698,-4.4707,-4.4794,-4.4788,-4.4784,-4.4823,-4.4855,-4.4854,-4.4851,-4.4839,-4.4839,-4.484,-4.4841,-4.4841,-4.4841,-4.4607,-4.4633,-4.4706,-4.4766,-4.4806,-4.4859,-4.4895,-4.4935,-4.4979,-4.4968,-4.4968,-4.4942,-4.4746,-4.4696,-4.485,-4.4848,-4.4847,-4.4846,-4.4846,-4.4824,-4.4775,-4.4887,-4.4929,-4.5,-4.5073,-4.5066,-4.515,-4.5183,-4.5226,-4.5194,-4.505,-4.5033,-4.5017,-4.4976,-4.5193,-4.5193,-4.5193,-4.5193,-4.494,-4.4932,-4.5047,-4.5114,-4.5179,-4.5185,-4.5316,-4.5346,-4.5369,-4.539,-4.5359,-4.5304,-4.5288,-4.5282,-4.526,-4.5221,-4.5496,-4.5497,-4.5497,-4.5073,-4.5072,-4.5182,-4.5204,-4.5261,-4.531,-4.5433,-4.5512,-4.5529,-4.5509,-4.5407,-4.5394,-4.5306,-4.5277,-4.5251,-4.5218,-4.5147,0,0]},{"header":{"parameterUnit":"m.s-1","parameterCategory":1,"la1":30.2992,"la2":30.254,"lo1":-89.0895,"lo2":-89.0443,"dy":0.0025,"dx":0.0025,"nx":19,"ny":19,"refTime":"2026-05-19T03:00:00:Z","depth":0,"parameterNumber":3,"parameterNumberName":"V-component_of_WINDS"},"data":[0,0,0,2.1893,2.1893,2.187,2.187,2.1823,2.1823,0,0,0,0,0,0,0,0,0,0,0,2.1891,2.189,2.1893,2.1893,2.187,2.187,2.1823,2.1823,0,0,0,0,0,0,0,0,0,0,0,2.1891,2.1891,2.189,2.1893,2.187,2.187,2.1824,2.1846,0,0,0,0,0,0,0,0,0,0,2.1871,2.1861,2.1891,2.189,2.1892,2.187,2.187,2.1848,2.1845,2.1827,0,2.1809,0,2.1815,2.1819,2.1818,0,0,0,2.1899,2.1863,2.1865,2.189,2.1892,2.187,2.1882,2.1846,2.1843,2.1823,2.1809,2.1808,2.1815,2.1818,2.1818,2.1696,2.1696,0,0,2.19,2.1881,2.1868,2.1863,2.1868,2.1883,2.1881,2.1845,2.1828,2.1809,2.1807,2.1814,2.1818,2.1817,2.1697,2.1696,0,0,0,2.1899,2.1882,2.1886,2.1864,2.1862,2.1882,2.188,2.1829,2.1832,2.1806,2.1813,2.1817,2.1817,2.1698,2.1697,2.1638,0,0,0,2.1901,2.1882,2.1886,2.1874,2.1862,2.1846,2.1865,2.1835,2.1831,2.1814,2.1817,2.1816,2.1699,2.1698,2.1642,2.1612,0,0,0,2.1895,2.1881,2.1875,2.1873,2.1863,2.1847,2.1848,2.1834,2.1835,2.1818,2.1816,2.17,2.1698,2.1645,2.1618,2.1576,0,0,0,2.1884,2.1821,2.1874,2.1807,2.1863,2.1811,2.1848,2.1809,2.1788,2.1817,2.1699,2.1697,2.1646,2.1621,2.1579,2.1536,2.1517,0,0,2.1795,2.181,2.1772,2.1818,2.1752,2.1816,2.1741,2.1737,2.1751,2.1713,2.1711,2.164,2.1618,2.1576,2.1417,2.1401,0,0,0,2.1737,2.1709,2.1696,2.1676,2.1674,2.1669,2.168,2.1679,2.1649,2.1729,2.1614,2.1602,2.1578,2.1558,2.1545,2.1526,2.1687,2.1688,2.1688,2.1582,2.1606,2.1545,2.1566,2.1546,2.156,2.1545,2.1546,2.1573,2.1546,2.1535,2.1435,2.1412,2.1402,2.1382,2.1515,2.1514,2.1514,2.1514,2.1453,2.1418,2.1459,2.1414,2.1439,2.1401,2.1411,2.1433,2.14,2.1445,2.1425,2.1473,2.1385,2.1368,2.151,2.1511,2.1511,2.1512,2.1512,2.1354,2.1342,2.1343,2.1319,2.1296,2.1319,2.1287,2.1311,2.1332,2.1312,2.1303,2.1304,2.1308,2.1307,2.1306,2.1306,2.1306,2.1305,2.1305,2.1251,2.1255,2.1226,2.122,2.1211,2.1202,2.1215,2.1207,2.1203,2.1222,2.1222,2.1252,2.1372,2.1402,2.13,2.1301,2.1301,2.1302,2.1302,2.111,2.1147,2.1101,2.1093,2.1088,2.1064,2.1096,2.1076,2.1072,2.1055,2.1091,2.1176,2.1192,2.1203,2.1227,2.1086,2.1086,2.1086,2.1086,2.1027,2.1039,2.0999,2.0983,2.0971,2.0995,2.0942,2.0952,2.0967,2.0966,2.099,2.1025,2.1035,2.1045,2.1059,2.1082,2.0908,2.0908,2.0908,2.0942,2.0954,2.0905,2.0923,2.0921,2.0918,2.087,2.0849,2.0874,2.0901,2.0966,2.0973,2.103,2.1047,2.1074,2.1095,2.1138,0,0]}]]